DMSP 5D-2 F13 DEB, 40580

Orbit data source: Space-Track

DMSP 5D-2 F13 DEB, 40580 is space debris in SSO originally from a launch on Fri, 24 Mar 1995 UTC launched from the Air Force Western Test Range (AFWTR). Debris objects in space refer to the collection of defunct objects orbiting the Earth. Examples of debris include non-operational satellites, rocket bodies, and fragments generated from explosions, collisions, or faulty payload assembly.

Loading next visibility...
Identifier
40580, 1995-015EP
Orbit
SSO
Country
Flag of USUS
Related business
Manufacturer
Unknown
Mission
Spacecraft
Bus & Motor
Unknown
Mass
Unknown
Launch date (UTC)
1995-03-24 (31 years ago)
Launch vehicle
Unknown
Launch site
Air Force Western Test Range (AFWTR)
Object type
Payload
Rocket body
Debris
Shape & HBR
Unknown shape, 0.1 m
Radar Cross Section
Small (<0.1 m²)

Expand to show TLE details & history
Last TLE update: 2 days ago

TLE from 2 days ago
0 DMSP 5D-2 F13 DEB
1 40580U 95015EP  25287.01157297  .00005929  00000-0  22416-2 0  9995
2 40580  98.8507 311.6529 0012253 283.2919  76.6897 14.31586678544612
Epoch: 2025-10-14T00:16Z
TLE epoch observation values (Epoch: 2025-10-14T00:16:39.904Z)
Latitude
-0.00001°
Longitude
-75.31949°
Altitude
787.347 km
Speed
7.461 km/s
True Right ascension
20h 46m 36s
True Declination
0° 00' 00"
Sunlit
Object was in daylight at epoch
Visualization orbit readout
Latitude
Unknown
Longitude
Unknown
Altitude
Unknown
Speed
Unknown
Apparent Right ascension
Unknown
Apparent Declination
Unknown
Sunlit
N/A
Visualization observer readout
Local Sidereal Time
12:41:19
Azimuth
Unknown
Elevation
Unknown
Doppler factor
Unknown
Orbital elements
Apogee altitude
792.357 km
Perigee altitude
774.807 km
Semi-major axis
7,161.719 km
Eccentricity
0.00123
Inclination
98.8507°
RAAN
311.6529°
Arg. of periapsis
283.2919°
True anomaly
76.82639°
Mean anomaly
76.6897°
Eccentric anomaly
76.75804°
Mean motion
3.58111 °/min
Orbital period
100.53 mins
BSTAR
0.0022416

Documentation

Showing up to 5 results
|